This demonstration page uses our WeatherBlox Daily Observations layout. Learn more.

Left ArrowRight Arrow

53.62937, 11.41316

Hourly Observations for April 12, 2015

Temp ( °F °C ) Dew Point ( °F °C ) Humidity (%) Winds ( mph kmh ) Pressure ( in mb ) Visibility ( mi km ) Precip ( " mm )
6:20 am 06:20 Mostly Clear 39 4 36 2 87 87 SW 10 17 30.30 1026 7 11 N/A
6:50 am 06:50 Mostly Sunny 39 4 36 2 87 87 WSW 10 17 30.30 1026 7 11 N/A
7:20 am 07:20 Mostly Sunny 41 5 36 2 81 81 WSW 10 17 30.30 1026 7 11 N/A
7:50 am 07:50 Mostly Sunny 41 5 36 2 81 81 SW 13 20 30.33 1027 7 11 N/A
8:20 am 08:20 Mostly Sunny 41 5 37 3 87 87 SW 14 22 30.33 1027 7 11 N/A
8:50 am 08:50 Mostly Sunny 43 6 36 2 76 76 SW 15 24 30.33 1027 7 11 N/A
9:20 am 09:20 Mostly Sunny 45 7 37 3 76 76 SW 16 26 30.36 1028 7 11 N/A
9:50 am 09:50 Mostly Sunny 46 8 37 3 71 71 SW 17 28 30.36 1028 7 11 N/A
10:20 am 10:20 Mostly Sunny 46 8 37 3 71 71 SW 16 26 30.36 1028 7 11 N/A
10:50 am 10:50 Mostly Sunny 50 10 39 4 67 67 SW 17 28 30.36 1028 7 11 N/A
11:20 am 11:20 Mostly Sunny 50 10 36 2 58 58 SW 17 28 30.36 1028 7 11 N/A
11:50 am 11:50 Mostly Sunny 52 11 36 2 54 54 SW 21 33 30.36 1028 30 48 N/A
12:20 pm 12:20 Partly Cloudy 54 12 37 3 54 54 WSW 18 30 30.36 1028 30 48 N/A
12:50 pm 12:50 Partly Cloudy 54 12 34 1 47 47 WSW 20 31 30.33 1027 30 48 N/A
12:58 pm 12:58 Mostly Cloudy 54 12 36 2 51 51 SW 18 30 30.33 1027 30 48 N/A
1:20 pm 13:20 Partly Cloudy 54 12 36 2 51 51 SW 20 31 30.33 1027 30 48 N/A
1:50 pm 13:50 Partly Cloudy 54 12 32 0 44 44 SW 21 33 30.33 1027 30 48 N/A
2:20 pm 14:20 Partly Cloudy 55 13 32 0 41 41 SW 18 30 30.30 1026 30 48 N/A
2:50 pm 14:50 Partly Cloudy 55 13 32 0 41 41 SW 21 33 30.30 1026 30 48 N/A
3:20 pm 15:20 Mostly Sunny 55 13 30 -1 38 38 SW 18 30 30.30 1026 7 11 N/A
3:35 pm 15:35 Partly Cloudy 57 14 32 0 39 39 SW 17 28 30.27 1025 30 48 N/A
3:50 pm 15:50 Mostly Sunny 55 13 32 0 41 41 SW 16 26 30.27 1025 7 11 N/A
4:20 pm 16:20 Mostly Sunny 57 14 30 -1 36 36 SW 16 26 30.27 1025 7 11 N/A
4:50 pm 16:50 Mostly Sunny 57 14 30 -1 36 36 SW 20 31 30.24 1024 7 11 N/A
5:20 pm 17:20 Mostly Sunny 55 13 30 -1 38 38 SSW 18 30 30.24 1024 7 11 N/A
5:50 pm 17:50 Mostly Sunny 57 14 28 -2 33 33 SSW 20 31 30.24 1024 7 11 N/A
6:20 pm 18:20 Mostly Sunny 55 13 28 -2 36 36 SSW 16 26 30.21 1023 7 11 N/A
6:50 pm 18:50 Mostly Sunny 55 13 30 -1 38 38 SSW 14 22 30.18 1022 7 11 N/A

Powered by AerisWeather